Regional Weather Roundup
Issued by NWS Bismarck, ND

Home | Current Version | Previous Version | Graphics & Text | Print | Product List | Glossary On
Versions: 1 2 3 4 5 6 7 8 9 10 11 12 13 14 15 16 17 18 19 20 21 22 23 24 25 26 27 28 29 30 31 32 33 34 35 36 37 38 39 40 41 42 43 44 45 46 47 48 49 50
000
ASUS43 KBIS 250420
RWRBIS

NWR BROADCAST TEXT
NATIONAL WEATHER SERVICE BISMARCK ND
1100 PM CDT FRI APR 24 2015

NOTE: "FAIR" INDICATES FEW OR NO CLOUDS BELOW 12,000 FEET WITH NO
SIGNIFICANT WEATHER AND/OR OBSTRUCTIONS TO VISIBILITY.


CITY           SKY/WX    TMP DP  RH WIND       PRES   REMARKS
WILLISTON      CLOUDY    58  36  43 E8        29.65R
MINOT          PTCLDY    48  37  65 E13       29.71R
MINOT AFB      PTCLDY    48  41  75 E17       29.70R
BISMARCK       CLEAR     50  42  74 E13       29.71R
DICKINSON      PTCLDY    46  32  58 E8        29.64S
GARRISON         N/A     48  39  71 E10       29.69R
HETTINGER ARPT PTCLDY    46  34  62 E10       29.67R
JAMESTOWN      CLOUDY    47  40  76 E13       29.74R
BEACH          FAIR      48  32  53 SE8       29.64R
CARRINGTON     FAIR      45  45 100 E12       29.76R
CROSBY         CLOUDY    50  37  62 E10       29.68S
HARVEY           N/A    N/A N/A N/A MISG        N/A
HAZEN          FAIR      46  37  71 SE7       29.69R
LINTON         FAIR      48  46  93 E17       29.69R
MANDAN         FAIR      48  41  76 E15       29.71R
OAKES            N/A     46  45  93 E17G25    29.71S
STANLEY        FAIR      46  39  76 E9        29.70S
TIOGA          MOCLDY    48  36  61 E8        29.71R
WATFORD CITY   FAIR      50  32  50 E6        29.64R
$$

CITY           SKY/WX    TMP DP  RH WIND       PRES   REMARKS
GRAND FORKS    CLOUDY    48  36  63 SE7       29.81R
GRAND FORKS AF CLOUDY    47  37  67 SE8       29.81R
DEVILS LAKE    CLOUDY    46  37  71 E13       29.78R
FARGO          CLOUDY    46  39  76 E12       29.78R
CANDO          FAIR      41  34  75 E12       29.80R
CAVALIER       CLOUDY    45  32  61 E10       29.83S
GRAFTON        CLOUDY    45  36  70 E10       29.83S
GWINNER        CLOUDY    46  45  93 E15       29.74R
LANGDON        FAIR      39  32  75 E9        29.82R
ROLLA          CLOUDY    39  34  81 E9        29.80S
WALHALLA       CLOUDY    45  32  61 E7        29.84S
$$

CITY           SKY/WX    TMP DP  RH WIND       PRES   REMARKS
ABERDEEN       CLOUDY    48  43  82 NE10      29.68R
MOBRIDGE       CLEAR     52  45  77 E22G30    29.61R
BUFFALO          N/A     51  33  50 E13       29.58S
RAPID CITY     MOCLDY    46  42  86 NW9       29.62R
GLASGOW        CLOUDY    56  34  43 N7        29.60S
SIDNEY         MOCLDY    55  36  47 CALM      29.63S
WOLF POINT     CLOUDY    54  43  66 E5        29.60S
GLENDIVE       CLOUDY    55  36  47 E12       29.62S
MILES CITY     CLOUDY    50  46  86 NE5       29.57S
BAKER          MOCLDY    48  34  58 SE8       29.62S
$$

CITY           SKY/WX    TMP DP  RH WIND       PRES   REMARKS
BILLINGS       MOCLDY    54  35  48 N18G29    29.58R
GREAT FALLS    LGT RAIN  42  38  85 NE6       29.73R
REGINA         CLOUDY    52  32  46 E18       29.69R
ESTEVAN        CLOUDY    54  36  50 E13       29.68S
$$




USA.gov is the U.S. government's official web portal to all federal, state and local government web resources and services.